OPS 0100 DEB *, 4843

Orbit data source: Space-Track

OPS 0100 DEB *, 4843 is space debris in LEO originally from a launch on Fri, 14 Apr 1967 UTC launched from the Air Force Western Test Range (AFWTR). Debris objects in space refer to the collection of defunct objects orbiting the Earth. Examples of debris include non-operational satellites, rocket bodies, and fragments generated from explosions, collisions, or faulty payload assembly.

Loading next visibility...
Identifier
4843, 1967-034E
Orbit
LEO
Last TLE update
5 days ago
Origin
Manufacturer
Unknown
Mission
Spacecraft
Bus & Motor
Unknown
Mass
Unknown
Launch date (UTC)
1967-04-14 (58 years ago)
Launch vehicle
Unknown
Launch site
Air Force Western Test Range (AFWTR)
Object type
Payload
Rocket body
Debris
Shape & HBR
Unknown
Radar Cross Section
Small (<0.1 m²)

Expand to show TLE details & history

TLE from 5 days ago
0 OPS 0100 DEB *
1 04843U 67034E   25187.85288395  .00000112  00000-0  15552-3 0  9995
2 04843  90.3794 128.3513 0029597  57.4028 359.5626 13.52549614226965
Epoch: 2025-07-06T20:28Z
TLE epoch observation values (Epoch: 2025-07-06T20:28:09.173Z)
Latitude
57.05406°
Longitude
-104.33998°
Altitude
1,050.509 km
Speed
7.343 km/s
True Right ascension
08h 31m 04s
True Declination
56° 54' 11"
Sunlit
Object was in daylight at epoch
Visualization orbit readout
Latitude
-70.00919°
Longitude
75.37967°
Altitude
1,108.98 km
Speed
7.287 km/s
Apparent Right ascension
11h 27m 08s
Apparent Declination
-76° 12' 01"
Sunlit
Object is in full shadow
Visualization observer readout
Local Sidereal Time
22:01:18
Azimuth
188.242° SSW
Elevation
-52.505°
Doppler factor
1
Orbital elements
Apogee altitude
1,081.954 km
Perigee altitude
1,037.925 km
Semi-major axis
7,438.076 km
Eccentricity
0.00296
Inclination
90.3794°
RAAN
128.3513°
Arg. of periapsis
57.4028°
True anomaly
Unknown
Mean anomaly
359.5626°
Eccentric anomaly
Unknown
Mean motion
3.38339 °/min
Orbital period
106.4 mins
BSTAR
0.00015552
Loading maneuver chart data...
Loading SW <> Apogee altitude chart data...
Loading historical data...
Loading historical data...
Loading historical data...
Loading historical data...
Loading historical data...
Loading historical data...
Loading historical data...

OPS 0100 DEB * Visibility forecast

Observer location: undefined°, undefined°

Span
Click to sort rows by Start time (UTC) header in descending order
Start Az.
Max El. time (UTC)
Max El. Az.
Max El.
End time (UTC)
End Az.
11 mins2025-07-11 19:15:33.042Z139.562° SSE2025-07-11 19:20:33.042Z85.936° E29.998°2025-07-11 19:26:33.042Z15.468° NNE
10 mins2025-07-11 21:02:33.042Z217.179° SW2025-07-11 21:07:33.042Z283.054° WNW29.497°2025-07-11 21:12:33.042Z337.544° N
4 mins2025-07-12 06:27:33.042Z64.618° ENE2025-07-12 06:28:33.042Z74.382° E13.241°2025-07-12 06:31:33.042Z102.429° ESE
11 mins2025-07-12 08:10:33.042Z2.038° NNE2025-07-12 08:15:33.042Z341.795° N44.835°2025-07-12 08:21:33.042Z185.774° SSW
|